Weather History for Saint Simons Island, GA

Change the Weather History Date:

Friday, February 1, 2013

  Actual Average Record
Temperature  
Mean Temperature 52 °F 52 °F  
Max Temperature 62 °F 61 °F 79 °F (1957)
Min Temperature 41 °F 44 °F 27 °F (1965)
Degree Days  
Heating Degree Days 13 13  
Month to date heating degree days 13 13  
Since 1 July heating degree days 688 964  
Cooling Degree Days 0 0  
Month to date cooling degree days 0 0  
Year to date cooling degree days 12 3  
Growing Degree Days 2 (Base 50)    
Moisture  
Dew Point 28 °F    
Average Humidity 46    
Maximum Humidity 62    
Minimum Humidity 29    
Precipitation  
Precipitation 0.00 in 0.11 in 2.89 in (1999)
Month to date precipitation 0.00 0.11  
Year to date precipitation 0.34 3.33  
Snow  
Snow 0.00 in - 0.00 in ()
Month to date snowfall 0.0  
Since 1 July snowfall 0.0  
Snow Depth 0.00 in    
Sea Level Pressure  
Sea Level Pressure 30.28 in    
Wind  
Wind Speed 7 mph (WNW)    
Max Wind Speed 16 mph    
Max Gust Speed 23 mph    
Visibility 10 miles    
Events      
T = Trace of Precipitation, MM = Missing Value Source: NWS Daily Summary

Daily Weather History Graph

Daily Weather History Graph

Search for Another Location

Airport:

Trip Planner

Search our weather history database for the weather conditions in past years. The results will help you decide how hot, cold, wet, or windy it might be!

Date:

Astronomy

Feb. 01, 2013 Rise Set
Actual Time 7:17 AM EST 6:01 PM EST
Civil Twilight 6:52 AM EST 6:26 PM EST
Nautical Twilight 6:23 AM EST 6:55 PM EST
Astronomical Twilight 5:54 AM EST 7:24 PM EST
Moon 11:38 PM EST (2/1) 10:16 AM EST (2/1)
Length of Visible Light 11h 34m
Length of Day
10h 43m
Waning Gibbous, 70% of the Moon is Illuminated
Feb 1
Waning Gibbous
Feb 3
Last Quarter
Feb 10
New
Feb 17
First Quarter
Feb 25
Full

Hourly Weather History & Observations

Time (EST) Temp. Windchill Dew Point Humidity Pressure Visibility Wind Dir Wind Speed Gust Speed Precip Events Conditions
12:53 AM 44.6 °F 41.4 °F 30.2 °F 57% 30.24 in 10.0 mi WSW 5.8 mph - N/A   Clear
1:53 AM 44.1 °F 40.1 °F 30.9 °F 60% 30.25 in 10.0 mi West 6.9 mph - N/A   Clear
2:53 AM 44.1 °F 41.5 °F 30.0 °F 58% 30.25 in 10.0 mi West 4.6 mph - N/A   Clear
3:53 AM 43.0 °F 39.5 °F 30.0 °F 60% 30.25 in 10.0 mi West 5.8 mph - N/A   Clear
4:53 AM 43.0 °F 39.5 °F 28.9 °F 58% 30.26 in 10.0 mi West 5.8 mph - N/A   Clear
5:53 AM 42.1 °F 38.4 °F 30.0 °F 62% 30.27 in 10.0 mi West 5.8 mph - N/A   Clear
6:53 AM 43.0 °F 38.8 °F 30.0 °F 60% 30.27 in 10.0 mi West 6.9 mph - N/A   Clear
7:53 AM 45.0 °F 40.6 °F 28.9 °F 53% 30.28 in 10.0 mi WSW 8.1 mph - N/A   Clear
8:53 AM 48.0 °F - 30.0 °F 50% 30.30 in 10.0 mi West 8.1 mph - N/A   Clear
9:53 AM 53.1 °F - 28.9 °F 40% 30.30 in 10.0 mi West 11.5 mph 18.4 mph N/A   Clear
10:53 AM 53.1 °F - 30.9 °F 43% 30.29 in 10.0 mi West 8.1 mph - N/A   Clear
11:53 AM 55.0 °F - 34.0 °F 45% 30.28 in 10.0 mi WSW 9.2 mph - N/A   Clear
12:53 PM 59.0 °F - 33.8 °F 39% 30.27 in 10.0 mi WSW 11.5 mph - N/A   Clear
1:53 PM 62.1 °F - 32.0 °F 32% 30.25 in 10.0 mi WNW 9.2 mph - N/A   Clear
2:53 PM 60.8 °F - 28.4 °F 29% 30.24 in 10.0 mi WNW 11.5 mph 21.9 mph N/A   Clear
3:53 PM 61.0 °F - 28.0 °F 29% 30.25 in 10.0 mi WNW 8.1 mph 18.4 mph N/A   Clear
4:53 PM 60.8 °F - 28.4 °F 29% 30.25 in 10.0 mi West 9.2 mph - N/A   Clear
5:53 PM 57.0 °F - 26.1 °F 30% 30.27 in 10.0 mi WNW 4.6 mph - N/A   Clear
6:53 PM 55.0 °F - 24.1 °F 30% 30.29 in 10.0 mi NW 4.6 mph - N/A   Clear
7:53 PM 52.0 °F - 25.0 °F 35% 30.31 in 10.0 mi NW 3.5 mph - N/A   Clear
8:53 PM 48.0 °F - 21.9 °F 36% 30.33 in 10.0 mi North 6.9 mph - N/A   Clear
9:53 PM 44.1 °F 40.8 °F 21.9 °F 42% 30.34 in 10.0 mi North 5.8 mph - N/A   Clear
10:53 PM 43.0 °F 38.8 °F 18.0 °F 37% 30.35 in 10.0 mi North 6.9 mph - N/A   Clear
11:53 PM 42.1 °F 37.7 °F 18.0 °F 38% 30.35 in 10.0 mi North 6.9 mph - N/A   Clear